| time (UTC) | temp C | wind direction | speed KPH | gust KPH | rain 1hr cm | rain 24hr cm | rain mn cm | humidity % | barometer mb |
| 20260505165924 | 21 | 146 | 0.0 | 0.0 | 0.00 | 0.00 | 0.00 | 58 | 1011.4 |
| 20260505165425 | 21 | 223 | 0.0 | 0.0 | 0.00 | 0.00 | 0.00 | 59 | 1011.4 |
| 20260505164924 | 21 | 176 | 0.0 | 0.0 | 0.00 | 0.00 | 0.00 | 58 | 1011.4 |
| 20260505164424 | 21 | 261 | 0.0 | 0.0 | 0.00 | 0.00 | 0.00 | 58 | 1011.6 |
| 20260505163924 | 21 | 272 | 0.0 | 0.0 | 0.00 | 0.00 | 0.00 | 58 | 1011.5 |
| 20260505163424 | 21 | 236 | 0.0 | 0.0 | 0.00 | 0.00 | 0.00 | 59 | 1011.5 |
| 20260505162924 | 21 | 205 | 0.0 | 0.0 | 0.00 | 0.00 | 0.00 | 58 | 1011.5 |
| 20260505162423 | 21 | 183 | 0.0 | 0.0 | 0.00 | 0.00 | 0.00 | 58 | 1011.6 |
| 20260505161926 | 21 | 257 | 0.0 | 0.0 | 0.00 | 0.00 | 0.00 | 59 | 1011.7 |
| 20260505161922 | 21 | 229 | 0.0 | 0.0 | 0.00 | 0.00 | 0.00 | 59 | 1011.7 |
| 20260505160924 | 21 | 215 | 0.0 | 0.0 | 0.00 | 0.00 | 0.00 | 59 | 1011.7 |
| 20260505160422 | 21 | 225 | 0.0 | 0.0 | 0.00 | 0.00 | 0.00 | 59 | 1011.7 |
| 20260505152920 | 20 | 230 | 0.0 | 0.0 | 0.00 | 0.00 | 0.00 | 60 | 1011.7 |
| 20260505152419 | 20 | 203 | 0.0 | 0.0 | 0.00 | 0.00 | 0.00 | 60 | 1011.6 |
| 20260505151919 | 20 | 229 | 0.0 | 0.0 | 0.00 | 0.00 | 0.00 | 60 | 1011.5 |
| 20260505151418 | 20 | 191 | 0.0 | 0.0 | 0.00 | 0.00 | 0.00 | 59 | 1011.4 |
| 20260505150918 | 20 | 209 | 0.0 | 0.0 | 0.00 | 0.00 | 0.00 | 60 | 1011.4 |
| 20260505150418 | 20 | 249 | 0.0 | 0.0 | 0.00 | 0.00 | 0.00 | 60 | 1011.3 |
| 20260505140416 | 19 | 220 | 0.0 | 0.0 | 0.00 | 0.00 | 0.00 | 62 | 1011.1 |
| 20260505124916 | 17 | 232 | 0.0 | 0.0 | 0.00 | 0.00 | 0.00 | 67 | 1011.4 |
| 20260505124912 | 17 | 238 | 0.0 | 0.0 | 0.00 | 0.00 | 0.00 | 67 | 1011.3 |
| 20260505123912 | 17 | 246 | 0.0 | 0.0 | 0.00 | 0.00 | 0.00 | 68 | 1011.4 |
| 20260505123412 | 16 | 246 | 0.0 | 0.0 | 0.00 | 0.00 | 0.00 | 68 | 1011.4 |
| 20260505122912 | 16 | 248 | 0.0 | 0.0 | 0.00 | 0.00 | 0.00 | 69 | 1011.4 |
| 20260505122417 | 16 | 248 | 0.0 | 0.0 | 0.00 | 0.00 | 0.00 | 69 | 1011.3 |
| 20260505122412 | 16 | 248 | 0.0 | 0.0 | 0.00 | 0.00 | 0.00 | 69 | 1011.3 |
| 20260505121413 | 16 | 248 | 0.0 | 0.0 | 0.00 | 0.00 | 0.00 | 70 | 1011.2 |
| 20260505120912 | 16 | 249 | 0.0 | 0.0 | 0.00 | 0.00 | 0.00 | 71 | 1011.2 |
| 20260505120416 | 15 | 247 | 0.0 | 0.0 | 0.00 | 0.00 | 0.00 | 72 | 1011.1 |
| 20260505120412 | 16 | 249 | 0.0 | 0.0 | 0.00 | 0.00 | 0.00 | 71 | 1011.1 |
| 20260505115411 | 15 | 247 | 0.0 | 0.0 | 0.00 | 0.00 | 0.00 | 72 | 1011.0 |
| 20260505114911 | 15 | 247 | 0.0 | 0.0 | 0.00 | 0.00 | 0.00 | 73 | 1011.0 |
| 20260505114412 | 15 | 247 | 0.0 | 0.0 | 0.00 | 0.00 | 0.00 | 73 | 1010.9 |
| 20260505113917 | 15 | 247 | 0.0 | 0.0 | 0.00 | 0.00 | 0.00 | 74 | 1010.7 |
| 20260505113913 | 15 | 247 | 0.0 | 0.0 | 0.00 | 0.00 | 0.00 | 74 | 1010.7 |
| 20260505112911 | 15 | 247 | 0.0 | 0.0 | 0.00 | 0.00 | 0.00 | 73 | 1010.8 |
| 20260505112416 | 15 | 247 | 0.0 | 0.0 | 0.00 | 0.00 | 0.00 | 71 | 1010.7 |
| 20260505112411 | 15 | 247 | 0.0 | 0.0 | 0.00 | 0.00 | 0.00 | 73 | 1010.8 |
| 20260505111911 | 15 | 247 | 0.0 | 0.0 | 0.00 | 0.00 | 0.00 | 72 | 1010.8 |
| 20260505110917 | 15 | 247 | 0.0 | 0.0 | 0.00 | 0.00 | 0.00 | 69 | 1010.8 |
| 20260505110912 | 15 | 247 | 0.0 | 0.0 | 0.00 | 0.00 | 0.00 | 71 | 1010.8 |
| 20260505110517 | 15 | 248 | 0.0 | 0.0 | 0.00 | 0.00 | 0.00 | 69 | 1010.8 |
| 20260505101910 | 16 | 244 | 0.0 | 0.0 | 0.00 | 0.00 | 0.00 | 66 | 1010.3 |
| 20260505101407 | 16 | 246 | 0.0 | 0.0 | 0.00 | 0.00 | 0.00 | 66 | 1010.3 |
| 20260505100912 | 16 | 265 | 0.0 | 0.0 | 0.00 | 0.00 | 0.00 | 65 | 1010.2 |
| 20260505100907 | 16 | 261 | 0.0 | 0.0 | 0.00 | 0.00 | 0.00 | 65 | 1010.2 |
| 20260505095907 | 16 | 269 | 0.0 | 0.0 | 0.00 | 0.00 | 0.00 | 65 | 1010.1 |
| 20260505095411 | 16 | 253 | 0.0 | 0.0 | 0.00 | 0.00 | 0.00 | 65 | 1010.0 |
| 20260505095406 | 16 | 267 | 0.0 | 0.0 | 0.00 | 0.00 | 0.00 | 65 | 1010.1 |
| 20260505094408 | 16 | 253 | 0.0 | 0.0 | 0.00 | 0.00 | 0.00 | 64 | 1009.9 |
| 20260505094404 | 17 | 264 | 0.0 | 0.0 | 0.00 | 0.00 | 0.00 | 64 | 1010.1 |
| 20260505094007 | 16 | 256 | 0.0 | 0.0 | 0.00 | 0.00 | 0.00 | 64 | 1009.9 |
| 20260505093508 | 16 | 256 | 0.0 | 0.0 | 0.00 | 0.00 | 0.00 | 64 | 1009.9 |
| 20260505092404 | 17 | 244 | 0.0 | 0.0 | 0.00 | 0.00 | 0.00 | 63 | 1010.0 |
| 20260505092359 | 17 | 265 | 0.0 | 0.0 | 0.00 | 0.00 | 0.00 | 63 | 1010.1 |
| 20260505092004 | 17 | 249 | 0.0 | 0.0 | 0.00 | 0.00 | 0.00 | 63 | 1010.0 |
| 20260505090903 | 17 | 250 | 0.0 | 0.0 | 0.00 | 0.00 | 0.00 | 63 | 1010.1 |
| 20260505090359 | 17 | 259 | 0.0 | 0.0 | 0.00 | 0.00 | 0.00 | 62 | 1010.0 |
| 20260505085857 | 17 | 243 | 0.0 | 0.0 | 0.00 | 0.00 | 0.00 | 62 | 1009.9 |
| 20260505085357 | 17 | 240 | 0.0 | 0.0 | 0.00 | 0.00 | 0.00 | 62 | 1009.9 |
| 20260505084857 | 17 | 249 | 0.0 | 0.0 | 0.00 | 0.00 | 0.00 | 62 | 1010.0 |
| 20260505084357 | 17 | 217 | 0.0 | 0.0 | 0.00 | 0.00 | 0.00 | 62 | 1010.0 |
| 20260505083857 | 17 | 274 | 0.0 | 0.0 | 0.00 | 0.03 | 0.00 | 62 | 1009.9 |
| 20260505083357 | 17 | 229 | 0.0 | 0.0 | 0.00 | 0.03 | 0.00 | 62 | 1009.8 |
| 20260505082858 | 17 | 228 | 0.0 | 0.0 | 0.00 | 0.03 | 0.00 | 62 | 1009.9 |
| 20260505082358 | 17 | 222 | 0.0 | 0.0 | 0.00 | 0.03 | 0.00 | 62 | 1009.9 |
| 20260505081859 | 17 | 214 | 0.0 | 0.0 | 0.00 | 0.03 | 0.00 | 62 | 1009.8 |
| 20260505081356 | 17 | 244 | 0.0 | 0.0 | 0.00 | 0.03 | 0.00 | 63 | 1009.9 |
| 20260505080856 | 17 | 241 | 0.0 | 0.0 | 0.00 | 0.03 | 0.00 | 63 | 1009.9 |
| 20260505080355 | 17 | 237 | 0.0 | 0.0 | 0.00 | 0.03 | 0.00 | 62 | 1009.9 |
| 20260505075855 | 17 | 261 | 0.0 | 0.0 | 0.00 | 0.03 | 0.00 | 62 | 1009.8 |
| 20260505075355 | 17 | 228 | 0.0 | 0.0 | 0.00 | 0.03 | 0.00 | 62 | 1009.7 |
| 20260505074854 | 17 | 251 | 0.0 | 0.0 | 0.00 | 0.03 | 0.00 | 63 | 1009.7 |
| 20260505074356 | 17 | 250 | 0.0 | 0.0 | 0.00 | 0.03 | 0.00 | 63 | 1009.5 |
| 20260505074352 | 17 | 226 | 0.0 | 0.0 | 0.00 | 0.03 | 0.00 | 63 | 1009.7 |
| 20260505073352 | 17 | 223 | 0.0 | 0.0 | 0.00 | 0.03 | 0.00 | 63 | 1009.5 |
| 20260505072850 | 17 | 265 | 0.0 | 0.0 | 0.00 | 0.05 | 0.00 | 63 | 1009.5 |
| 20260505072350 | 17 | 259 | 0.0 | 0.0 | 0.00 | 0.05 | 0.00 | 62 | 1009.5 |
| 20260505071850 | 17 | 257 | 0.0 | 0.0 | 0.00 | 0.05 | 0.00 | 62 | 1009.5 |
| 20260505071351 | 17 | 259 | 0.0 | 0.0 | 0.00 | 0.05 | 0.00 | 61 | 1009.5 |
| 20260505070850 | 17 | 222 | 0.0 | 0.0 | 0.00 | 0.05 | 0.00 | 62 | 1009.5 |
| 20260505070350 | 17 | 250 | 0.0 | 0.0 | 0.00 | 0.05 | 0.00 | 62 | 1009.4 |
| 20260505065851 | 17 | 243 | 0.0 | 0.0 | 0.00 | 0.05 | 0.00 | 62 | 1009.6 |
| 20260505065350 | 17 | 250 | 0.0 | 0.0 | 0.00 | 0.05 | 0.00 | 62 | 1009.7 |
| 20260505064850 | 18 | 256 | 0.0 | 0.0 | 0.00 | 0.05 | 0.00 | 61 | 1009.6 |
| 20260505064348 | 18 | 255 | 0.0 | 0.0 | 0.00 | 0.05 | 0.00 | 61 | 1009.7 |
| 20260505063849 | 18 | 237 | 0.0 | 0.0 | 0.00 | 0.05 | 0.00 | 61 | 1009.7 |
| 20260505063348 | 18 | 240 | 0.0 | 0.0 | 0.00 | 0.05 | 0.00 | 61 | 1009.6 |
| 20260505062848 | 18 | 244 | 0.0 | 0.0 | 0.00 | 0.05 | 0.00 | 61 | 1009.7 |
| 20260505062353 | 18 | 254 | 0.0 | 0.0 | 0.00 | 0.05 | 0.00 | 61 | 1009.7 |
| 20260505061849 | 18 | 249 | 0.0 | 0.0 | 0.00 | 0.05 | 0.00 | 61 | 1009.7 |
| 20260505061348 | 18 | 237 | 0.0 | 0.0 | 0.00 | 0.05 | 0.00 | 61 | 1009.8 |
| 20260505060848 | 18 | 248 | 0.0 | 0.0 | 0.00 | 0.05 | 0.00 | 60 | 1009.8 |
| 20260505060354 | 18 | 234 | 0.0 | 0.0 | 0.00 | 0.05 | 0.00 | 60 | 1009.8 |
| 20260505055848 | 18 | 232 | 0.0 | 0.0 | 0.00 | 0.05 | 0.00 | 60 | 1009.8 |
| 20260505055345 | 18 | 234 | 0.0 | 0.0 | 0.00 | 0.05 | 0.00 | 60 | 1009.9 |
| 20260505054846 | 18 | 235 | 0.0 | 0.0 | 0.00 | 0.05 | 0.00 | 60 | 1009.9 |
| 20260505054346 | 18 | 238 | 0.0 | 0.0 | 0.00 | 0.05 | 0.00 | 59 | 1009.9 |
| 20260505053846 | 18 | 238 | 0.0 | 0.0 | 0.00 | 0.05 | 0.00 | 59 | 1010.0 |
| 20260505053350 | 19 | 238 | 0.0 | 0.0 | 0.00 | 0.05 | 0.00 | 58 | 1010.0 |
| 20260505053345 | 19 | 238 | 0.0 | 0.0 | 0.00 | 0.05 | 0.00 | 59 | 1010.0 |
| 20260505052347 | 19 | 238 | 0.0 | 0.0 | 0.00 | 0.05 | 0.00 | 58 | 1010.0 |
| 20260505051846 | 19 | 238 | 0.0 | 0.0 | 0.00 | 0.05 | 0.00 | 58 | 1009.9 |
| 20260505051351 | 20 | 228 | 0.0 | 0.0 | 0.00 | 0.05 | 0.00 | 56 | 1009.8 |
| 20260505051345 | 19 | 238 | 0.0 | 0.0 | 0.00 | 0.05 | 0.00 | 57 | 1009.9 |
| 20260505050844 | 20 | 215 | 0.0 | 0.0 | 0.00 | 0.05 | 0.00 | 57 | 1009.8 |
| 20260505050342 | 20 | 238 | 0.0 | 0.0 | 0.00 | 0.05 | 0.00 | 57 | 1009.9 |
| 20260505041340 | 20 | 238 | 0.0 | 0.0 | 0.00 | 0.05 | 0.00 | 55 | 1009.3 |
| 20260505040840 | 20 | 217 | 0.0 | 0.0 | 0.00 | 0.05 | 0.00 | 54 | 1009.4 |
| 20260505040340 | 20 | 226 | 0.0 | 0.0 | 0.00 | 0.05 | 0.00 | 54 | 1009.3 |
| 20260505035839 | 20 | 223 | 0.0 | 0.0 | 0.00 | 0.05 | 0.05 | 54 | 1009.1 |
| 20260505035340 | 21 | 231 | 0.0 | 0.0 | 0.00 | 0.05 | 0.05 | 54 | 1009.1 |
| 20260505034840 | 21 | 233 | 0.0 | 0.0 | 0.00 | 0.05 | 0.05 | 54 | 1009.1 |
| 20260505034339 | 21 | 235 | 0.0 | 0.0 | 0.00 | 0.05 | 0.05 | 54 | 1008.9 |
| 20260505033845 | 21 | 256 | 0.0 | 0.0 | 0.00 | 0.05 | 0.05 | 53 | 1008.9 |
| 20260505033840 | 21 | 181 | 0.0 | 0.0 | 0.00 | 0.05 | 0.05 | 53 | 1009.0 |
| 20260505032839 | 21 | 189 | 0.0 | 0.0 | 0.00 | 0.05 | 0.05 | 53 | 1009.0 |
| 20260505032340 | 21 | 217 | 0.0 | 0.0 | 0.00 | 0.05 | 0.05 | 53 | 1008.9 |
| 20260505031839 | 21 | 199 | 0.0 | 0.0 | 0.00 | 0.05 | 0.05 | 53 | 1008.8 |
| 20260505031340 | 21 | 167 | 0.0 | 0.0 | 0.00 | 0.05 | 0.05 | 52 | 1008.7 |
| 20260505030840 | 21 | 211 | 0.0 | 0.0 | 0.00 | 0.05 | 0.05 | 52 | 1008.6 |
| 20260505030340 | 21 | 209 | 0.0 | 0.0 | 0.00 | 0.05 | 0.05 | 52 | 1008.6 |
| 20260505025840 | 21 | 214 | 0.0 | 0.0 | 0.00 | 0.05 | 0.05 | 52 | 1008.6 |
| 20260505025340 | 21 | 202 | 0.0 | 0.0 | 0.00 | 0.05 | 0.05 | 52 | 1008.7 |
| 20260505024839 | 21 | 235 | 0.0 | 0.0 | 0.00 | 0.05 | 0.05 | 52 | 1008.6 |
| 20260505024340 | 21 | 208 | 0.0 | 0.0 | 0.00 | 0.05 | 0.05 | 52 | 1008.6 |
| 20260505023837 | 21 | 161 | 0.0 | 0.0 | 0.00 | 0.05 | 0.05 | 51 | 1008.4 |
| 20260505023338 | 21 | 202 | 0.0 | 0.0 | 0.00 | 0.05 | 0.05 | 50 | 1008.4 |
| 20260505022838 | 21 | 209 | 0.0 | 0.0 | 0.00 | 0.05 | 0.05 | 50 | 1008.3 |
| 20260505022337 | 22 | 236 | 0.0 | 0.0 | 0.00 | 0.05 | 0.05 | 49 | 1008.4 |
| 20260505021838 | 22 | 209 | 0.0 | 0.0 | 0.00 | 0.05 | 0.05 | 49 | 1008.3 |
| 20260505021337 | 22 | 184 | 0.0 | 0.0 | 0.00 | 0.05 | 0.05 | 48 | 1008.1 |
| 20260505020838 | 22 | 214 | 0.0 | 0.0 | 0.00 | 0.05 | 0.05 | 48 | 1008.1 |
| 20260505020337 | 22 | 202 | 0.0 | 0.0 | 0.00 | 0.05 | 0.05 | 48 | 1007.9 |
| 20260505015837 | 22 | 227 | 0.0 | 0.0 | 0.00 | 0.05 | 0.05 | 48 | 1007.9 |
| 20260505015336 | 22 | 197 | 0.0 | 0.0 | 0.00 | 0.05 | 0.05 | 48 | 1007.7 |
| 20260505014837 | 22 | 189 | 0.0 | 0.0 | 0.00 | 0.05 | 0.05 | 48 | 1007.8 |
| 20260505014338 | 22 | 199 | 0.0 | 0.0 | 0.00 | 0.05 | 0.05 | 48 | 1007.8 |
| 20260505013836 | 22 | 170 | 0.0 | 0.0 | 0.00 | 0.05 | 0.05 | 48 | 1007.9 |
| 20260505013336 | 22 | 174 | 0.0 | 0.0 | 0.00 | 0.05 | 0.05 | 48 | 1007.9 |
| 20260505012835 | 22 | 190 | 0.0 | 0.0 | 0.00 | 0.05 | 0.05 | 48 | 1008.0 |
| 20260505012335 | 22 | 214 | 0.0 | 0.0 | 0.00 | 0.05 | 0.05 | 48 | 1008.0 |
| 20260505011835 | 22 | 171 | 0.0 | 0.0 | 0.00 | 0.05 | 0.05 | 48 | 1008.0 |
| 20260505011335 | 22 | 209 | 0.0 | 0.0 | 0.00 | 0.05 | 0.05 | 48 | 1008.0 |
| 20260505010835 | 22 | 177 | 0.0 | 0.0 | 0.00 | 0.05 | 0.05 | 48 | 1008.1 |
| 20260505010337 | 22 | 191 | 0.0 | 0.0 | 0.00 | 0.05 | 0.05 | 48 | 1008.1 |
| 20260505005837 | 22 | 216 | 0.0 | 0.0 | 0.00 | 0.05 | 0.05 | 48 | 1008.1 |
| 20260505005335 | 22 | 196 | 0.0 | 0.0 | 0.00 | 0.05 | 0.05 | 47 | 1008.1 |
| 20260505004833 | 23 | 216 | 0.0 | 0.0 | 0.00 | 0.05 | 0.05 | 47 | 1008.1 |
| 20260505004333 | 23 | 215 | 0.0 | 0.0 | 0.00 | 0.05 | 0.05 | 47 | 1008.1 |
| 20260505003837 | 23 | 214 | 0.0 | 0.0 | 0.00 | 0.05 | 0.05 | 47 | 1008.3 |
| 20260505003833 | 23 | 231 | 0.0 | 0.0 | 0.00 | 0.05 | 0.05 | 47 | 1008.1 |
| 20260505002833 | 23 | 231 | 0.0 | 0.0 | 0.00 | 0.05 | 0.05 | 47 | 1008.3 |
| 20260505002339 | 23 | 209 | 0.0 | 0.0 | 0.00 | 0.05 | 0.05 | 46 | 1008.1 |
| 20260505002335 | 23 | 225 | 0.0 | 0.0 | 0.00 | 0.05 | 0.05 | 46 | 1008.1 |
| 20260505001333 | 23 | 181 | 0.0 | 0.0 | 0.00 | 0.05 | 0.05 | 45 | 1008.1 |
| 20260505000831 | 23 | 225 | 0.0 | 0.0 | 0.00 | 0.05 | 0.05 | 46 | 1008.1 |
| 20260505000331 | 24 | 203 | 0.0 | 0.0 | 0.00 | 0.05 | 0.05 | 45 | 1008.1 |
| 20260504235831 | 24 | 215 | 0.0 | 0.0 | 0.00 | 0.05 | 0.05 | 45 | 1008.1 |
| 20260504235331 | 24 | 197 | 0.0 | 0.0 | 0.00 | 0.05 | 0.05 | 45 | 1008.1 |
| 20260504234831 | 24 | 180 | 0.0 | 0.0 | 0.00 | 0.05 | 0.05 | 44 | 1008.3 |
| 20260504234331 | 24 | 208 | 0.0 | 0.0 | 0.00 | 0.05 | 0.05 | 45 | 1008.4 |
| 20260504233837 | 25 | 201 | 0.0 | 0.0 | 0.00 | 0.05 | 0.05 | 44 | 1008.4 |
| 20260504233333 | 25 | 184 | 0.0 | 0.0 | 0.00 | 0.05 | 0.05 | 45 | 1008.5 |
| 20260504233329 | 25 | 198 | 0.0 | 0.0 | 0.00 | 0.05 | 0.05 | 44 | 1008.5 |
| 20260504232333 | 25 | 203 | 0.0 | 0.0 | 0.00 | 0.05 | 0.05 | 45 | 1008.6 |
| 20260504232329 | 25 | 206 | 0.0 | 0.0 | 0.00 | 0.05 | 0.05 | 45 | 1008.5 |
| 20260504231329 | 25 | 220 | 0.0 | 0.0 | 0.00 | 0.05 | 0.05 | 46 | 1008.5 |
| 20260504230829 | 25 | 200 | 0.0 | 0.0 | 0.00 | 0.05 | 0.05 | 45 | 1008.5 |
| 20260504230329 | 25 | 226 | 0.0 | 0.0 | 0.00 | 0.05 | 0.05 | 45 | 1008.6 |
| 20260504225829 | 25 | 236 | 0.0 | 0.0 | 0.00 | 0.05 | 0.05 | 45 | 1008.7 |
| 20260504225329 | 25 | 191 | 0.0 | 0.0 | 0.00 | 0.05 | 0.05 | 44 | 1008.7 |
| 20260504224828 | 25 | 234 | 0.0 | 0.0 | 0.00 | 0.05 | 0.05 | 44 | 1008.8 |
| 20260504224326 | 25 | 216 | 0.0 | 0.0 | 0.00 | 0.05 | 0.05 | 44 | 1008.7 |
| 20260504223827 | 25 | 165 | 0.0 | 0.0 | 0.00 | 0.05 | 0.05 | 43 | 1008.8 |
| 20260504223327 | 25 | 232 | 0.0 | 0.0 | 0.00 | 0.05 | 0.05 | 42 | 1008.8 |
| 20260504222827 | 25 | 230 | 0.0 | 0.0 | 0.00 | 0.05 | 0.05 | 43 | 1008.7 |
| 20260504222327 | 25 | 175 | 0.0 | 0.0 | 0.00 | 0.05 | 0.05 | 42 | 1008.8 |
| 20260504221828 | 25 | 257 | 0.0 | 0.0 | 0.00 | 0.05 | 0.05 | 41 | 1008.8 |
| 20260504221327 | 25 | 218 | 0.0 | 0.0 | 0.00 | 0.05 | 0.05 | 41 | 1008.7 |
| 20260504220828 | 25 | 238 | 0.0 | 0.0 | 0.00 | 0.05 | 0.05 | 41 | 1008.7 |
| 20260504220327 | 25 | 225 | 0.0 | 0.0 | 0.00 | 0.05 | 0.05 | 41 | 1008.7 |
| 20260504215827 | 25 | 252 | 0.0 | 0.0 | 0.00 | 0.05 | 0.05 | 41 | 1008.8 |
| 20260504215324 | 25 | 235 | 0.0 | 0.0 | 0.00 | 0.05 | 0.05 | 40 | 1008.7 |
| 20260504214825 | 25 | 238 | 0.0 | 0.0 | 0.00 | 0.05 | 0.05 | 39 | 1008.8 |
| 20260504214326 | 25 | 244 | 0.0 | 0.0 | 0.00 | 0.05 | 0.05 | 39 | 1008.8 |
| 20260504213826 | 25 | 277 | 0.0 | 0.0 | 0.00 | 0.05 | 0.05 | 40 | 1008.8 |
| 20260504213324 | 25 | 203 | 0.0 | 0.0 | 0.00 | 0.05 | 0.05 | 40 | 1008.7 |
| 20260504212825 | 25 | 211 | 0.0 | 0.0 | 0.00 | 0.05 | 0.05 | 41 | 1008.7 |
| 20260504212325 | 25 | 178 | 0.0 | 0.0 | 0.00 | 0.05 | 0.05 | 41 | 1008.7 |
| 20260504211824 | 25 | 259 | 0.0 | 0.0 | 0.00 | 0.05 | 0.05 | 40 | 1008.7 |
| 20260504211325 | 26 | 230 | 0.0 | 0.0 | 0.00 | 0.05 | 0.05 | 41 | 1008.6 |
| 20260504210824 | 26 | 246 | 0.0 | 0.0 | 0.00 | 0.05 | 0.05 | 40 | 1008.6 |
| 20260504210323 | 26 | 200 | 0.0 | 0.0 | 0.00 | 0.05 | 0.05 | 41 | 1008.6 |
| 20260504205821 | 26 | 207 | 0.0 | 0.0 | 0.00 | 0.05 | 0.05 | 42 | 1008.5 |
| 20260504205322 | 25 | 213 | 0.0 | 0.0 | 0.00 | 0.05 | 0.05 | 43 | 1008.7 |
| 20260504204823 | 26 | 204 | 0.0 | 0.0 | 0.00 | 0.05 | 0.05 | 42 | 1008.7 |
| 20260504204819 | 26 | 229 | 0.0 | 0.0 | 0.00 | 0.05 | 0.05 | 43 | 1008.7 |
| 20260504203823 | 26 | 205 | 0.0 | 0.0 | 0.00 | 0.05 | 0.05 | 42 | 1008.9 |
| 20260504203819 | 26 | 235 | 0.0 | 0.0 | 0.00 | 0.05 | 0.05 | 42 | 1008.8 |
| 20260504202819 | 25 | 159 | 0.0 | 0.0 | 0.00 | 0.05 | 0.05 | 44 | 1008.8 |
| 20260504202318 | 25 | 200 | 0.0 | 0.0 | 0.00 | 0.05 | 0.05 | 44 | 1009.0 |
| 20260504201819 | 25 | 226 | 0.0 | 0.0 | 0.00 | 0.05 | 0.05 | 43 | 1009.0 |
| 20260504201319 | 25 | 218 | 0.0 | 0.0 | 0.00 | 0.05 | 0.05 | 43 | 1009.1 |
| 20260504200819 | 25 | 168 | 0.0 | 0.0 | 0.00 | 0.05 | 0.05 | 45 | 1009.2 |
| 20260504200319 | 25 | 164 | 0.0 | 0.0 | 0.00 | 0.05 | 0.05 | 45 | 1009.4 |
| 20260504195818 | 25 | 183 | 0.0 | 0.0 | 0.00 | 0.05 | 0.05 | 44 | 1009.6 |
| 20260504195324 | 25 | 308 | 0.0 | 0.0 | 0.00 | 0.05 | 0.05 | 45 | 1009.5 |
| 20260504194825 | 25 | 238 | 0.0 | 0.0 | 0.00 | 0.05 | 0.05 | 45 | 1009.9 |
| 20260504194820 | 25 | 225 | 0.0 | 0.0 | 0.00 | 0.05 | 0.05 | 46 | 1009.7 |
| 20260504193822 | 25 | 263 | 0.0 | 0.0 | 0.00 | 0.05 | 0.05 | 45 | 1009.9 |
| 20260504193818 | 25 | 172 | 0.0 | 0.0 | 0.00 | 0.05 | 0.05 | 45 | 1010.0 |
| 20260504192819 | 25 | 183 | 0.0 | 0.0 | 0.00 | 0.05 | 0.05 | 46 | 1010.0 |
| 20260504192318 | 25 | 226 | 0.0 | 0.0 | 0.00 | 0.05 | 0.05 | 46 | 1010.1 |
| 20260504191824 | 25 | 228 | 0.0 | 0.0 | 0.00 | 0.05 | 0.05 | 47 | 1010.2 |
| 20260504191820 | 25 | 234 | 0.0 | 0.0 | 0.00 | 0.05 | 0.05 | 45 | 1010.2 |
| 20260504190818 | 25 | 270 | 0.0 | 0.0 | 0.00 | 0.05 | 0.05 | 47 | 1010.2 |
| 20260504190319 | 24 | 261 | 0.0 | 0.0 | 0.00 | 0.05 | 0.05 | 47 | 1010.3 |
| 20260504185819 | 24 | 232 | 0.0 | 0.0 | 0.00 | 0.05 | 0.05 | 46 | 1010.4 |
| 20260504185318 | 24 | 216 | 0.0 | 0.0 | 0.00 | 0.05 | 0.05 | 48 | 1010.4 |
| 20260504184824 | 24 | 207 | 0.0 | 0.0 | 0.00 | 0.05 | 0.05 | 48 | 1010.5 |
| 20260504184819 | 24 | 195 | 0.0 | 0.0 | 0.00 | 0.05 | 0.05 | 47 | 1010.4 |
| 20260504183818 | 23 | 192 | 0.0 | 0.0 | 0.00 | 0.05 | 0.05 | 49 | 1010.5 |
| 20260504183319 | 23 | 237 | 0.0 | 0.0 | 0.00 | 0.05 | 0.05 | 48 | 1010.6 |
| 20260504182819 | 23 | 197 | 0.0 | 0.0 | 0.00 | 0.05 | 0.05 | 50 | 1010.6 |
| 20260504182318 | 23 | 233 | 0.0 | 0.0 | 0.00 | 0.05 | 0.05 | 50 | 1010.7 |
| 20260504181820 | 23 | 229 | 0.0 | 0.0 | 0.00 | 0.05 | 0.05 | 51 | 1010.7 |
| 20260504181319 | 23 | 221 | 0.0 | 0.0 | 0.00 | 0.05 | 0.05 | 51 | 1010.8 |
| 20260504180818 | 23 | 181 | 0.0 | 0.0 | 0.00 | 0.05 | 0.05 | 50 | 1010.8 |
| 20260504180318 | 22 | 224 | 0.0 | 0.0 | 0.00 | 0.05 | 0.05 | 51 | 1010.9 |
| 20260504175819 | 22 | 167 | 0.0 | 0.0 | 0.00 | 0.05 | 0.05 | 50 | 1010.9 |
| 20260504175319 | 22 | 197 | 0.0 | 0.0 | 0.00 | 0.05 | 0.05 | 51 | 1010.9 |
| 20260504174818 | 22 | 167 | 0.0 | 0.0 | 0.00 | 0.05 | 0.05 | 52 | 1010.9 |
| 20260504174318 | 22 | 200 | 0.0 | 0.0 | 0.00 | 0.05 | 0.05 | 51 | 1011.0 |
| 20260504173818 | 22 | 188 | 0.0 | 0.0 | 0.00 | 0.05 | 0.05 | 52 | 1011.0 |
| 20260504173322 | 22 | 172 | 0.0 | 0.0 | 0.00 | 0.05 | 0.05 | 53 | 1011.1 |
| 20260504173316 | 22 | 193 | 0.0 | 0.0 | 0.00 | 0.05 | 0.05 | 52 | 1011.1 |
| 20260504172320 | 21 | 215 | 0.0 | 0.0 | 0.00 | 0.05 | 0.05 | 53 | 1011.3 |
| 20260504172316 | 22 | 205 | 0.0 | 0.0 | 0.00 | 0.05 | 0.05 | 53 | 1011.2 |
| 20260504171316 | 21 | 217 | 0.0 | 0.0 | 0.00 | 0.05 | 0.05 | 54 | 1011.3 |
| 20260504170816 | 21 | 207 | 0.0 | 0.0 | 0.00 | 0.05 | 0.05 | 54 | 1011.4 |
| 20260504170321 | 21 | 214 | 0.0 | 0.0 | 0.00 | 0.05 | 0.05 | 52 | 1011.5 |